Regional Weather Roundup
Issued by NWS

Home | Current Version | Previous Version | Graphics & Text | Print | Product List | Glossary On
Versions: 1 2 3 4 5 6 7 8 9 10 11 12 13 14 15 16 17 18 19 20 21 22 23 24 25 26 27 28 29 30 31 32 33 34 35 36 37 38 39 40 41 42 43 44 45 46 47 48 49 50
316
ASUS45 KBOU 270707
RWRCO

WEATHER ROUNDUP FOR COLORADO
NATIONAL WEATHER SERVICE DENVER/BOULDER CO
100 AM MDT THU APR 27 2017

NOTE: "FAIR" INDICATES FEW OR NO CLOUDS BELOW 12000 FEET WITH NO
SIGNIFICANT WEATHER AND/OR OBSTRUCTIONS TO VISIBILITY.

COZ001>005-013-030-031-270800-
...NORTHWEST COLORADO...

CITY           SKY/WX    TMP DP  RH WIND       PRES   REMARKS
CRAIG          LGT RAIN  39  35  86 W12       29.71S
HAYDEN         CLOUDY    37  30  75 W10       29.71F
MEEKER         LGT RAIN  39  36  89 S5        29.73S
MOUNT WERNER   NOT AVBL
STEAMBOAT SPGS CLOUDY    36  34  92 E5        29.70F
WALDEN           N/A     32  28  86 S8        29.71F WCI  25
$$

COZ006>008-011-270800-
...WEST CENTRAL VALLEYS...

CITY           SKY/WX    TMP DP  RH WIND       PRES   REMARKS
GRAND JUNCTION CLOUDY    47  40  76 E3        29.71F
MONTROSE       MOCLDY    45  34  65 CALM      29.74F
EAGLE          CLOUDY    38  31  76 E7        29.73F
RIFLE          LGT RAIN  44  37  76 W9        29.73R
DELTA          CLOUDY    49  37  65 N7        29.75S
NUCLA          CLOUDY    46  34  61 S18G29    29.77F
$$

COZ017>023-064>068-270800-
...SOUTHWEST COLORADO...

CITY           SKY/WX    TMP DP  RH WIND       PRES   REMARKS
DURANGO        CLOUDY    42  27  55 SW12      29.80R
CORTEZ         CLOUDY    44  39  82 E6        29.77F
PAGOSA SPRINGS CLOUDY    40  29  64 CALM      29.81F
TELLURIDE      LGT SNOW  35  29  76 W6        29.84R WCI  30
WOLF CREEK PAS FLURRIES  21  21 100 SW16G23   29.90F WCI   7
$$

COZ009-010-012-014-032>034-037-058>063-270800-
...CENTRAL COLORADO...

CITY           SKY/WX    TMP DP  RH WIND       PRES   REMARKS
ASPEN          CLOUDY    34  29  82 CALM      29.72F
BUENA VISTA    FAIR      40  20  46 W9        29.74F
COPPER MTN     FAIR      27  18  69 MISG      29.79F
BERTHOUD PASS  FAIR      16   5  62 W23G33    29.77F WCI  -2
COTTONWOOD PAS FAIR      34  19  55 SW12      29.77F WCI  25
GUNNISON       FAIR      37  29  72 SW3       29.77F
KREMMLING      CLOUDY    37  36  93 CALM      29.73F
LEADVILLE      MOCLDY    28  19  69 CALM      29.75F
MONARCH PASS   CLOUDY    21  21 100 W28G33    29.91F WCI   3
SALIDA         FAIR      42  24  48 SW7       29.81F
SUNLIGHT       HVY SNOW  25  23  93 SW14G22   29.81F VSB 1/4 WCI  13
WILKERSON PASS FAIR      25  18  74 SW13G20   29.80F WCI  13
$$

COZ069>075-270800-
...SAN LUIS VALLEY/SANGRE DE CRISTO MOUNTAINS...

CITY           SKY/WX    TMP DP  RH WIND       PRES   REMARKS
ALAMOSA        CLOUDY    42  26  53 SW10      29.77F
LA VETA PASS   MOCLDY    30  21  69 S18G32    29.91F WCI  18
SAGUACHE       MOCLDY    36  21  55 CALM      29.77F
$$

COZ035-036-038>040-270800-
...NORTHERN COLORADO FRONT RANGE...

CITY           SKY/WX    TMP DP  RH WIND       PRES   REMARKS
DENVER INTL AP MOCLDY    41  33  73 SE7       29.65F
DMNS CITY PARK   N/A     44  33  66 S2G12     29.64F
AURORA         MOCLDY    42  34  73 SE8       29.66F
FRONT RANGE AP FAIR      45  34  65 S8        29.67F
ERIE MUNI ARPT FAIR      40  35  81 N6        29.67F
BOULDER MUN AP MOCLDY    43  36  75 N7        29.66F
CENTENNIAL     FAIR      41  34  76 S10       29.65F
BROOMFIELD     FAIR      45  32  61 CALM      29.67F
FORT COLLINS   FAIR      43  36  76 S5        29.69F
LONGMONT       CLOUDY    45  37  73 N5        29.70S
$$

COZ041-046-047-076>085-087-088-270800-
...PIKES PEAK/PALMER DIVIDE AND SOUTHERN FOOTHILLS...

CITY           SKY/WX    TMP DP  RH WIND       PRES   REMARKS
COLO. SPRINGS  MOCLDY    41  33  73 E5        29.71F
A. F. ACADEMY  FAIR      33  31  90 N3        29.70F
SCHRIEVER AFB  FAIR      37  33  85 S3        29.70F
ELLICOTT       FAIR     N/A N/A N/A S3        29.69F
FALCON         FAIR      37  33  85 SW5       29.72F
FORT CARSON    FAIR      43  31  64 SW7       29.69F
LIMON          FAIR      34  33  96 CALM      29.69F
MONUMENT HILL  MOCLDY    34  32  93 S8        29.71F WCI  27
TRINIDAD       FAIR      42  33  70 W6        29.71F
$$

COZ042>045-048>051-090-091-270800-
...NORTHEAST COLORADO...

CITY           SKY/WX    TMP DP  RH WIND       PRES   REMARKS
GREELEY ARPT   NOT AVBL
AKRON            N/A     41  37  86 SE5       29.69F
BURLINGTON     NOT AVBL
WRAY           NOT AVBL
STERLING       FAIR      37  37 100 CALM      29.67F
HOLYOKE        MOCLDY    43  37  81 NE5       29.71S
FORT MORGAN    CLOUDY    41  39  91 CALM      29.69F
$$

COZ086-089-092>099-270800-
...SOUTHEAST COLORADO...

CITY           SKY/WX    TMP DP  RH WIND       PRES   REMARKS
PUEBLO         FAIR      46  38  73 NE3       29.67F
LA JUNTA       FAIR      45  38  76 E7        29.67F
LAMAR          FAIR      41  36  82 E7        29.68F
SPRINGFIELD      N/A     40  36  86 SW7       29.71F
$$




USA.gov is the U.S. government's official web portal to all federal, state and local government web resources and services.